EHI
0 0 0 0 0 0 0 0 0 0 0 0 0 0 0 0 0 0 0 0 0 0 0 0 0 0 0 0 0 0 0 0 0 0 0 0 0 0
0 0 0 0 0 0 0 0 0 0 0 0 0 0 0 0 0 0 0 0 0 0 0 0 0 0 0 0 0 0 0 0 0 0 0 0 0 0
0 0 0 0 0 0 0 0 0 0 0 0 0 0 0 0 0 0 0 0 0 0 0 0 0 0 0 0 0 0 0 0 0 0 0 0 0 0
0 0 0 0 0 0 0 0 0 0 0 0 0 0 0 0 0 0 0 0 0 0 0 0 0 0 0 0 0 0 0 0 0 0 0 0 0 0
0 0 0 0 0 0 0 0 0 0 0 0 0 0 0 0 0 0 0 0 0 0 0 0 0 0 0 0 0 0 0 0 0 0 0 0 0 0
0 0 0 0 0 0 0 0 0 0 0 0 0 0 0 0 0 0 0 0 0 0 0 0 0 0 0 0 0 0 0 0 0 0 0 0 0 0
0 0 0 0 0 0 0 0 0 0 0 0 0 0 0 0 0 0 0 0 0 0 0 0 0 0 0 0 0 0 0 0 0 0 0 0 0 0
0 0 0 0 0 0 0 0 0 0 0 0 0 0 0 0 0 0 0 0 0 0 0 0 0 0 0 0 0 0 0 0 0 0 0 0 0 0
0 0 0 0 0 0 0 0 0 0 0 0 0 0 0 0 0 0 0 0 0 0 0 0 0 0 0 0 0 0 0 0 0 0 0 0 0 0
0 0 0 0 0 0 0 0 0 0 0 0 0 0 0 0 0 0 0 0 0 0 0 0 0 0 0 0 0 0 0 0 0 0 0 0 0 0
0 0 0 0 0 0 0 0 0 0 0 0 0 0 0 0 0 0 0 0 0 0 0 0 0 0 0 0 0 0 0 0 0 0 0 0 0 0
0 0 0 0 0 0 0 0 0 0 0 0 0 0 0 0 0 0 0 0 0 0 0 0 0 0 0 0 0 0 0 0 0 0 0 0 0 0
0 0 0 0 0 0 0 0 0 0 0 0 0 0 0 0 0 0 0 0 0 0 0 0 0 0 0 0 0 0 0 0 0 0 0 0 0 0
0 0 0 0 0 0 0 0 0 0 0 0 0 0 0 0 0 0 0 0 0 0 0 0 0 0 0 0 0 0 0 0 0 0 0 0 0 0
0 0 0 0 0 0 0 0 0 0 0 0 0 0 0 0 0 0 0 0 0 0 0 0 0 0 0 0 0 0 0 0 0 0 0 0 0 0
0 0 0 0 0 0 0 0 0 0 0 0 0 0 0 0 0 0 0 0 0 0 0 0 0 0 0 0 0 0 0 0 0 0 0 0 0 0
0 0 0 0 0 0 0 0 0 0 0 0 0 0 0 0 0 0 0 0 0 0 0 0 0 0 0 0 0 0 0 0 0 0 0 0 0 0
0 0 0 0 0 0 0 0 0 0 0 0 0 0 0 0 0 0 0 0 0 0 0 0 0 0 0 0 0 0 0 0 0 0 0 0 0 0
0 0 0 0 0 0 0 0 0 0 0 0 0 0 0 0 0 0 0 0 0 0 0 0 0 0 0 0 0 0 0 0 0 0 0 0 0 0
0 0 0 0 0 0 0 0 0 0 0 0 0 0 0 0 0 0 0 0 0 0 0 0 0 0 0 0 0 0 0 0 0 0 0 0 0 0
0 0 0 0 0 0 0 0 0 0 0 0 0 0 0 0 0 0 0 0 0 0 0 0 0 0 0 0 0 0 0 0 0 0 0 0 0 0
0 0 0 0 0 0 0 0 0 0 0 0 0 0 0 0 0 0 0 0 0 0 0 0 0 0 0 0 0 0 0 0 0 0 0 0 0 0
0 0 0 0 0 0 0 0 0 0 0 0 0 0 0 0 0 0 0 0 0 0 0 0 0 0 0 0 0 0 0 0 0 0 0 0 0 0
Wind_Speed
2 2 2 3 2 3 3 3 4 8 10 7 5 5 6 6 11 9 8 16 20 21 22 22 22 22 22 22 22 22 22 22 23 23 24 24 24 24
2 2 3 3 3 3 3 3 3 5 9 7 7 7 8 9 13 9 9 18 19 21 22 22 21 21 21 21 22 22 22 23 23 23 23 23 23 23
3 3 4 4 3 3 3 3 4 4 8 10 7 7 9 9 10 8 8 8 9 19 21 21 21 21 21 21 22 22 22 23 23 23 23 21 21 20
3 3 4 4 4 4 3 4 4 4 6 12 10 8 9 9 9 9 9 9 8 16 20 21 21 21 21 21 21 21 22 22 21 21 20 20 19 18
3 4 4 4 5 4 5 5 5 5 5 8 10 8 7 7 8 9 9 8 9 12 16 18 19 20 21 21 21 21 21 21 20 19 18 18 17 17
3 3 4 4 5 6 5 5 5 6 6 7 8 8 7 7 7 8 10 7 8 9 11 13 16 19 20 21 21 20 20 19 18 17 16 14 14 15
3 3 4 6 8 7 6 6 5 5 6 7 8 8 8 8 8 7 10 10 9 6 7 8 9 8 10 15 17 19 19 18 16 15 13 12 11 12
4 4 5 5 8 10 12 11 9 7 7 6 7 9 10 9 8 8 9 10 9 5 7 9 7 7 8 7 15 19 18 17 15 13 12 11 10 10
3 4 5 5 8 6 8 10 9 12 11 8 8 9 10 9 9 10 9 9 9 8 8 9 7 8 7 10 18 18 17 16 15 13 11 10 9 9
3 3 4 5 6 7 6 7 6 6 8 6 6 8 8 8 8 9 10 10 8 6 5 7 7 7 8 8 14 17 18 16 14 13 12 10 10 9
3 4 4 5 9 11 7 7 8 7 9 12 12 12 14 15 12 7 7 7 8 6 3 4 5 7 7 6 8 15 16 15 14 13 12 11 10 9
3 4 6 8 10 11 6 5 7 8 8 8 9 10 9 10 12 7 6 6 7 6 4 4 5 6 6 4 5 7 8 12 14 13 12 11 10 6
3 4 4 9 11 11 9 5 7 9 6 6 6 6 6 5 6 6 5 5 5 5 5 5 5 4 4 6 6 5 5 6 6 7 9 11 11 8
3 3 4 10 11 11 8 9 12 9 5 5 5 6 6 6 6 6 7 6 5 6 7 5 4 5 5 6 6 5 5 5 5 6 5 8 9 10
3 6 8 10 9 7 9 11 9 5 4 5 6 6 5 6 6 6 6 6 6 5 5 5 5 5 4 4 5 5 5 5 5 5 6 6 5 5
3 6 8 9 7 7 7 6 4 4 5 5 5 5 5 5 5 5 5 6 5 6 6 6 5 5 4 4 4 4 4 4 5 5 5 5 5 4
4 3 3 4 4 4 4 4 4 5 5 4 5 5 5 5 5 5 4 5 4 6 7 6 6 4 3 4 3 4 4 4 4 5 5 5 5 5
4 3 3 4 4 5 5 5 5 5 5 5 5 5 5 6 6 5 4 4 5 5 6 6 6 5 4 3 5 4 4 4 4 5 4 3 4 5
3 3 3 4 4 4 4 5 5 5 5 5 5 5 5 5 5 5 5 5 5 5 5 5 5 5 5 5 5 6 4 4 4 4 4 3 4 5
2 3 3 4 4 4 4 4 5 5 5 5 5 5 5 5 5 5 5 5 5 5 5 5 5 5 4 4 4 5 7 5 4 4 4 3 3 4
3 3 3 4 4 4 4 4 4 5 5 5 4 5 4 4 5 5 4 6 5 4 5 6 6 8 4 3 3 4 5 7 6 4 4 3 3 4
3 3 4 4 4 4 4 4 4 4 5 4 4 4 4 4 4 5 4 4 4 4 5 5 6 5 4 3 4 4 5 6 7 9 8 5 2 3
3 4 4 4 4 4 4 4 5 4 4 4 4 4 4 4 4 4 4 4 4 4 5 5 5 4 4 3 3 4 6 6 5 6 7 10 11 9
Wind_Direction
267 270 278 279 277 275 271 271 286 305 305 301 307 306 313 309 309 311 308 312 317 317 316 315 313 311 310 308 305 302 298 293 289 288 284 281 278 274
277 284 291 289 285 280 274 272 263 274 290 296 300 305 310 310 312 312 308 314 315 315 315 315 314 313 312 309 307 304 301 297 292 288 286 281 277 274
296 292 292 293 293 291 284 278 275 273 285 296 297 304 306 309 313 310 306 306 308 314 315 315 316 315 313 312 310 307 305 301 296 291 287 284 280 275
293 296 296 301 300 298 293 289 284 278 282 295 303 308 306 308 309 312 313 311 308 312 315 316 317 316 315 315 313 310 308 306 300 295 288 284 279 276
281 286 292 297 297 299 295 293 290 292 287 292 300 304 304 311 314 311 309 307 310 313 316 317 318 318 318 318 316 314 311 307 302 298 292 284 279 274
288 286 285 283 286 293 294 293 297 301 299 298 301 306 307 311 312 316 318 319 315 314 315 316 317 319 321 321 320 318 316 312 307 305 301 290 282 277
302 297 294 300 302 306 305 305 307 307 307 307 306 309 313 321 320 315 313 316 310 305 315 316 315 317 321 321 323 325 324 321 318 314 312 306 295 287
310 310 304 303 311 317 315 318 317 313 311 307 306 308 309 311 311 312 314 317 316 318 319 313 316 317 319 319 326 329 331 330 326 322 320 315 309 301
305 312 318 319 324 311 315 324 321 319 316 306 300 303 305 308 309 310 309 307 300 305 310 304 313 315 318 323 331 334 337 340 343 341 337 333 327 322
299 299 306 310 312 323 325 325 320 317 316 313 299 299 302 302 298 297 298 298 291 292 299 299 311 313 317 319 333 341 344 348 351 354 354 354 352 352
310 309 312 305 315 331 332 325 323 323 326 326 322 321 321 323 321 314 313 312 310 310 316 304 307 312 311 316 333 344 348 354 356 357 1 5 6 2
322 319 322 327 327 335 334 325 324 325 328 329 330 330 326 327 333 326 314 311 309 310 324 323 311 322 318 316 332 341 348 353 358 360 4 10 11 8
325 326 324 333 337 341 341 329 324 329 328 326 324 325 326 330 331 327 319 308 305 297 308 320 311 316 306 308 321 336 346 346 349 354 2 10 13 15
320 319 323 334 338 341 342 337 338 339 334 329 329 330 332 331 327 322 319 314 300 292 299 304 300 312 316 314 317 326 339 348 352 355 359 6 14 16
325 330 333 339 341 341 341 342 344 341 333 332 329 327 326 321 320 322 325 324 325 320 317 314 313 313 315 315 315 321 328 339 353 360 3 3 0 0
338 336 343 349 348 341 342 345 343 335 333 325 321 320 322 326 332 334 333 336 340 341 342 343 339 332 331 326 323 330 339 336 344 352 355 358 1 5
344 345 348 348 350 347 344 341 340 339 339 333 329 330 332 336 337 338 338 342 348 340 338 340 339 334 330 330 336 342 345 347 342 345 353 1 2 5
1 351 345 344 341 338 337 338 339 338 335 334 333 333 335 337 338 340 344 349 346 341 338 335 338 340 344 4 9 345 352 349 344 347 350 4 6 5
4 344 337 335 331 329 328 330 330 330 330 332 332 333 335 336 336 340 345 347 343 339 337 340 346 349 359 356 350 3 354 343 347 359 3 10 6 357
350 333 326 323 323 322 322 323 323 327 331 332 333 334 335 334 336 340 344 343 339 337 341 346 352 349 343 332 327 339 350 345 349 1 1 3 1 348
331 322 318 317 318 316 315 316 317 320 324 327 331 333 333 333 333 336 339 341 341 341 343 339 327 326 315 323 348 352 355 0 2 350 344 357 6 15
319 316 316 315 314 311 311 313 316 320 323 326 327 327 330 331 329 333 337 339 341 339 334 330 333 344 358 10 8 356 355 357 8 16 20 21 17 18
313 312 312 312 310 308 308 310 313 314 316 319 323 326 329 331 331 334 336 337 337 340 343 343 347 356 357 355 3 6 6 5 8 22 29 31 44 51